This demonstration page uses our WeatherBlox Daily Observations layout. Learn more.

38.89511, -77.03637

Hourly Observations for August 20, 2015

Temp ( °F °C ) Dew Point ( °F °C ) Humidity (%) Winds ( mph kmh ) Pressure ( in mb ) Visibility ( mi km ) Precip ( " mm )
12:52 am 00:52 Cloudy 79 26 73 23 84 84 SSE 8 13 29.97 1015 10 16.09344 0 0
1:36 am 01:36 Cloudy 79 26 73 23 84 84 SSE 7 11 29.94 1014 10 16.09344 0 0
1:52 am 01:52 Cloudy 79 26 73 23 84 84 SSE 8 13 29.94 1014 10 16.09344 0 0
2:18 am 02:18 Cloudy 79 26 73 23 84 84 S 7 11 29.94 1014 10 16.09344 0 0
2:37 am 02:37 Cloudy 79 26 73 23 84 84 SSE 7 11 29.94 1014 10 16.09344 0 0
2:52 am 02:52 Cloudy 79 26 73 23 84 84 SSE 8 13 29.94 1014 10 16.09344 0 0
3:31 am 03:31 Cloudy 79 26 73 23 84 84 S 8 13 29.94 1014 10 16.09344 0 0
3:40 am 03:40 Cloudy 79 26 73 23 84 84 SSE 8 13 29.94 1014 10 16.09344 0 0
3:52 am 03:52 Cloudy 79 26 73 23 84 84 SSE 7 11 29.91 1013 10 16.09344 0 0
4:15 am 04:15 Cloudy with Heavy Rain 77 25 73 23 89 89 S 7 11 29.91 1013 2.5 4.02336 0.06 1.524
4:23 am 04:23 Cloudy with Heavy Rain 75 24 73 23 94 94 SE 6 9 29.91 1013 2.5 4.02336 0.14 3.556
4:29 am 04:29 Cloudy with Light Rain 77 25 75 24 94 94 SE 6 9 29.91 1013 6 9.656064 0.15 3.81
4:34 am 04:34 Cloudy 77 25 75 24 94 94 SE 5 7 29.91 1013 10 16.09344 0 0
4:39 am 04:39 Cloudy 77 25 73 23 89 89 SE 5 7 29.91 1013 10 16.09344 0.15 3.81
4:52 am 04:52 Cloudy 77 25 75 24 94 94 SSE 5 7 29.91 1013 10 16.09344 0.15 3.81
5:11 am 05:11 Cloudy 77 25 75 24 94 94 SSE 5 7 29.91 1013 10 16.09344 0 0
5:25 am 05:25 Cloudy 77 25 75 24 94 94 SSE 6 9 29.91 1013 10 16.09344 0 0
5:52 am 05:52 Cloudy 79 26 75 24 89 89 SSE 7 11 29.91 1013 10 16.09344 0 0
6:00 am 06:00 Cloudy 77 25 75 24 94 94 SE 7 11 29.91 1013 10 16.09344 0 0
6:52 am 06:52 Cloudy 79 26 75 24 89 89 SE 7 11 29.91 1013 10 16.09344 0 0
7:52 am 07:52 Cloudy 79 26 73 23 84 84 SE 7 11 29.94 1014 10 16.09344 0 0
8:09 am 08:09 Cloudy 79 26 73 23 84 84 SE 8 13 29.94 1014 10 16.09344 0 0
8:52 am 08:52 Cloudy 79 26 73 23 84 84 SSE 9 15 29.94 1014 10 16.09344 0 0
9:52 am 09:52 Cloudy 81 27 75 24 84 84 S 8 13 29.94 1014 10 16.09344 0 0
10:16 am 10:16 Cloudy 81 27 75 24 84 84 S 10 17 29.94 1014 10 16.09344 0 0
10:52 am 10:52 Cloudy 81 27 75 24 84 84 S 14 22 29.94 1014 10 16.09344 0 0
11:52 am 11:52 Cloudy 81 27 75 24 84 84 S 15 24 29.94 1014 10 16.09344 0 0
12:16 pm 12:16 Cloudy 81 27 75 24 84 84 S 15 24 29.91 1013 7 11.265408 0 0
12:52 pm 12:52 Cloudy 81 27 73 23 79 79 S 10 17 29.91 1013 10 16.09344 0 0
1:52 pm 13:52 Cloudy 82 28 73 23 74 74 S 10 17 29.91 1013 10 16.09344 0 0
2:23 pm 14:23 Cloudy 82 28 73 23 74 74 SSW 13 20 29.91 1013 10 16.09344 0 0
2:52 pm 14:52 Cloudy 82 28 73 23 74 74 S 13 20 29.91 1013 10 16.09344 0 0
3:52 pm 15:52 Cloudy 82 28 73 23 74 74 S 10 17 29.88 1012 10 16.09344 0 0
4:52 pm 16:52 Mostly Cloudy 84 29 75 24 74 74 S 9 15 29.88 1012 10 16.09344 0 0
5:52 pm 17:52 Mostly Cloudy 84 29 75 24 74 74 SSE 8 13 29.88 1012 10 16.09344 0 0
6:52 pm 18:52 Mostly Cloudy 84 29 73 23 70 70 WNW 9 15 29.91 1013 10 16.09344 0 0
7:10 pm 19:10 Mostly Cloudy 81 27 68 20 66 66 NW 9 15 29.91 1013 10 16.09344 0 0
7:31 pm 19:31 Mostly Cloudy with Light Rain 79 26 70 21 74 74 NNW 8 13 29.91 1013 10 16.09344 0.001 0.001
7:42 pm 19:42 Mostly Cloudy 77 25 70 21 79 79 N 13 20 29.94 1014 10 16.09344 0 0
7:52 pm 19:52 Mostly Cloudy 77 25 70 21 79 79 WNW 7 11 29.94 1014 10 16.09344 0.001 0.001
7:58 pm 19:58 Mostly Cloudy with Thunderstorms 77 25 70 21 79 79 Calm 29.94 1014 10 16.09344 0 0
8:21 pm 20:21 Mostly Cloudy with Light Rain 77 25 72 22 83 83 SSE 3 6 29.94 1014 10 16.09344 0.01 0.254
8:52 pm 20:52 Mostly Cloudy 75 24 72 22 89 89 WSW 5 7 29.94 1014 10 16.09344 0.02 0.508
9:52 pm 21:52 Mostly Cloudy with Light Rain 75 24 72 22 89 89 SSW 6 9 29.97 1015 10 16.09344 0.001 0.001
10:43 pm 22:43 Mostly Cloudy 75 24 72 22 89 89 WSW 6 9 29.97 1015 10 16.09344 0.001 0.001
10:52 pm 22:52 Mostly Cloudy 75 24 72 22 89 89 Calm 29.94 1014 10 16.09344 0.001 0.001
11:24 pm 23:24 Mostly Cloudy 75 24 72 22 89 89 WNW 7 11 29.97 1015 10 16.09344 0 0
11:52 pm 23:52 Partly Cloudy 75 24 72 22 89 89 Calm 29.97 1015 10 16.09344 0 0

Powered by AerisWeather